TimePST,TemperatureF,Dew PointF,Humidity,Sea Level PressureIn,VisibilityMPH,Wind Direction,Wind SpeedMPH,Gust SpeedMPH,PrecipitationIn,Events,Conditions,WindDirDegrees,DateUTC
12:00 AM,46.8,-9999,N/A,30.15,-9999.0,SW,2.3,-,N/A,,Unknown,220,2012-11-14 08:00:00
1:00 AM,45.7,-9999,N/A,30.16,-9999.0,WSW,2.3,-,N/A,,Unknown,250,2012-11-14 09:00:00
2:00 AM,45.7,-9999,N/A,30.17,-9999.0,West,4.6,-,N/A,,Unknown,280,2012-11-14 10:00:00
3:00 AM,47.3,-9999,N/A,30.18,-9999.0,NW,9.2,-,N/A,,Unknown,310,2012-11-14 11:00:00
4:00 AM,47,,,30.19,,NW,10.4,,,,,310,2012-11-14 12:00:00
4:00 AM,47.3,-9999,N/A,30.19,-9999.0,NW,10.4,-,N/A,,Unknown,310,2012-11-14 12:00:00
5:00 AM,47.1,-9999,N/A,30.20,-9999.0,West,8.1,-,N/A,,Unknown,280,2012-11-14 13:00:00
6:00 AM,46.9,-9999,N/A,30.21,-9999.0,West,8.1,-,N/A,,Unknown,280,2012-11-14 14:00:00
7:00 AM,47.3,-9999,N/A,30.22,-9999.0,NW,12.7,-,N/A,,Unknown,320,2012-11-14 15:00:00
8:00 AM,47.1,-9999,N/A,30.24,-9999.0,NW,13.8,-,N/A,,Unknown,310,2012-11-14 16:00:00
9:00 AM,46.9,-9999,N/A,30.25,-9999.0,NW,11.5,-,N/A,,Unknown,320,2012-11-14 17:00:00
10:00 AM,47,,,30.27,,NW,11.5,,,,,310,2012-11-14 18:00:00
10:00 AM,46.9,-9999,N/A,30.27,-9999.0,NW,11.5,-,N/A,,Unknown,310,2012-11-14 18:00:00
11:00 AM,46.6,-9999,N/A,30.28,-9999.0,NW,12.7,-,N/A,,Unknown,320,2012-11-14 19:00:00
12:00 PM,47.3,-9999,N/A,30.29,-9999.0,NW,12.7,-,N/A,,Unknown,320,2012-11-14 20:00:00
1:00 PM,47.1,-9999,N/A,30.29,-9999.0,NW,12.7,-,N/A,,Unknown,320,2012-11-14 21:00:00
2:00 PM,47.7,-9999,N/A,30.29,-9999.0,NW,10.4,-,N/A,,Unknown,320,2012-11-14 22:00:00
3:00 PM,47.7,-9999,N/A,30.29,-9999.0,NNW,11.5,-,N/A,,Unknown,330,2012-11-14 23:00:00
4:00 PM,47,,,30.30,,NW,12.7,,,,,320,2012-11-15 00:00:00
4:00 PM,47.5,-9999,N/A,30.30,-9999.0,NW,12.7,-,N/A,,Unknown,320,2012-11-15 00:00:00
5:00 PM,47.1,-9999,N/A,30.30,-9999.0,NW,11.5,-,N/A,,Unknown,310,2012-11-15 01:00:00
6:00 PM,46.9,-9999,N/A,30.30,-9999.0,NW,9.2,-,N/A,,Unknown,310,2012-11-15 02:00:00
7:00 PM,46.6,-9999,N/A,30.30,-9999.0,WNW,8.1,-,N/A,,Unknown,300,2012-11-15 03:00:00
8:00 PM,46.4,-9999,N/A,30.31,-9999.0,WNW,4.6,-,N/A,,Unknown,300,2012-11-15 04:00:00
9:00 PM,46.6,-9999,N/A,30.31,-9999.0,NW,5.8,-,N/A,,Unknown,320,2012-11-15 05:00:00
10:00 PM,46,,,30.30,,NNW,4.6,,,,,330,2012-11-15 06:00:00
10:00 PM,46.4,-9999,N/A,30.30,-9999.0,NNW,4.6,-,N/A,,Unknown,330,2012-11-15 06:00:00
11:00 PM,46.2,-9999,N/A,30.30,-9999.0,NNW,2.3,-,N/A,,Unknown,330,2012-11-15 07:00:00